This is the latest recevied weather packets stored in our database for station/object 9M4RLD-3. If no packets are shown the sender has not sent any weather packets the latest 1 day(s).
| Time | Temp. | Humidity | Pressure | Rain* | Wind** | Luminosity | Snow |
|---|---|---|---|---|---|---|---|
| 1778094676 | 22.78° C | 100% | 1031.5 hPa | - | - | - | - |
| 1778093476 | 22.78° C | 100% | 1031.6 hPa | - | - | - | - |
| 1778091076 | 22.78° C | 100% | 1032 hPa | - | - | - | - |
| 1778089878 | 22.78° C | 100% | 1032 hPa | - | - | - | - |
| 1778088677 | 22.78° C | 100% | 1032.1 hPa | - | - | - | - |
| 1778087477 | 22.78° C | 100% | 1032.6 hPa | - | - | - | - |
| 1778086277 | 22.78° C | 100% | 1032.9 hPa | - | - | - | - |
| 1778083877 | 22.78° C | 100% | 1033.4 hPa | - | - | - | - |
| 1778075476 | 22.22° C | 100% | 1032.6 hPa | - | - | - | - |
| 1778074276 | 22.22° C | 100% | 1032.4 hPa | - | - | - | - |
| 1778071876 | 22.78° C | 100% | 1032 hPa | - | - | - | - |
| 1778070676 | 22.78° C | 100% | 1031.8 hPa | - | - | - | - |
| 1778069476 | 22.78° C | 100% | 1031.7 hPa | - | - | - | - |
| 1778068276 | 22.78° C | 100% | 1031.5 hPa | - | - | - | - |
| 1778067076 | 22.78° C | 100% | 1031.2 hPa | - | - | - | - |
| 1778065876 | 22.78° C | 100% | 1030.8 hPa | - | - | - | - |
| 1778064676 | 22.78° C | 100% | 1030.9 hPa | - | - | - | - |
| 1778057475 | 25.56° C | 100% | 1030.3 hPa | - | - | - | - |
| 1778055119 | 26.11° C | 100% | 1030.4 hPa | - | - | - | - |
| 1778055075 | 26.11° C | 100% | 1030.4 hPa | - | - | - | - |
| 1778053875 | 26.11° C | 100% | 1030.3 hPa | - | - | - | - |
| 1778052675 | 26.67° C | 100% | 1030.5 hPa | - | - | - | - |
| 1778051475 | 27.78° C | 100% | 1030.9 hPa | - | - | - | - |
| 1778050275 | 27.22° C | 100% | 1031 hPa | - | - | - | - |
| 1778049075 | 27.22° C | 100% | 1031.3 hPa | - | - | - | - |
* Rain since midnight (hover to see other rain measurements)
** Current wind speed in m/s (hover to see current wind gust speed)